Content
SEND FEEDBACK

Daily
Averages
Monthly
Summary
United States of America

BOX ELDER, SOUTH DAKOTA


Home > North America > United States > South Dakota
Elevation: 3170 feet     Latitude: 44 09N     Longitude: 103 06W

WEATHER
 
SELECT A DAY
Number of Records: 207,831;   Date Range: 1/1/95 - 10/24/14
 
SHARE

PRINT THIS DATA

[ ← Previous Day ]
WEATHER ALMANAC - MARCH 3, 2013
[ Next Day → ]
[ °C ]   °F
Weather ElementAverageHighLow
Temperature42.6 °F57.9 °F (1:55 pm)33.1 °F (10:55 pm)
Dewpoint28.7 °F30.2 °F (8:41 pm)23.2 °F (11:55 pm)
Humidity60.7 %87 % (10:10 pm)33 % (1:55 pm)
Barometer29.64 in29.82 in (1:55 am)29.52 in (2:55 pm)
Wind Speed22.8 mph49.5 mph (8:45 pm)
Wind Gust65.6 mph (8:45 pm)
Weather ElementAverage
Visibility10 mi
Wind DirectionWSW (233.2 °)

Weather ElementTotal
Precipitation0.01 in
Heating Degree Days19.5 (Base 65)
Averaged from 37 records on March 3, 2013
WEATHER CONDITIONS BREAKOUT
WIND DIRECTION BREAKOUT
WEATHER BY HOUR - MARCH 3, 2013
[ °C ]   °F
Local TimeTemperatureDewpointHumidityBarometerVisibilityWind DirectionWind SpeedGust SpeedPrecipitationEventsConditions
1:55 AM43.2 °F25.9 °F51 %29.82 in10.0 miCalmMostly Cloudy
2:55 AM42.8 °F27.5 °F55 %29.78 in10.0 miWest (270°)3.5 mphOvercast
3:55 AM46.4 °F26.6 °F46 %29.74 in10.0 miCalmOvercast
4:55 AM42.4 °F26.6 °F54 %29.73 in10.0 miNW (320°)9.2 mphOvercast
5:55 AM41.2 °F27.0 °F57 %29.73 in10.0 miNNE (30°)4.6 mphPartly Cloudy
6:55 AM39.4 °F26.4 °F60 %29.74 in10.0 miCalmPartly Cloudy
7:55 AM43.9 °F27.0 °F51 %29.73 in10.0 miNorth (360°)10.4 mphScattered Clouds
8:55 AM43.0 °F27.5 °F54 %29.72 in10.0 miNNW (340°)15.0 mphPartly Cloudy
9:55 AM49.1 °F27.7 °F44 %29.68 in10.0 miNorth (350°)16.1 mphClear
10:55 AM51.8 °F27.9 °F40 %29.65 in10.0 miNorth (360°)15.0 mphMostly Cloudy
11:55 AM52.7 °F29.3 °F41 %29.62 in10.0 miNNE (20°)12.7 mphPartly Cloudy
12:55 PM54.7 °F28.9 °F37 %29.58 in10.0 miNNE (20°)10.4 mphPartly Cloudy
1:55 PM57.9 °F28.6 °F33 %29.54 in10.0 miVariable6.9 mphClear
2:55 PM56.5 °F29.5 °F36 %29.52 in10.0 miENE (70°)9.2 mphPartly Cloudy
3:55 PM57.2 °F30.0 °F36 %29.52 in10.0 miESE (110°)4.6 mphClear
4:55 PM55.9 °F29.7 °F37 %29.52 in10.0 miEast (90°)5.8 mphScattered Clouds
5:55 PM51.3 °F29.1 °F43 %29.52 in10.0 miEast (80°)4.6 mphPartly Cloudy
6:55 PM46.2 °F28.6 °F50 %29.53 in10.0 miSSE (150°)4.6 mphClear
7:55 PM41.7 °F28.8 °F60 %29.53 in10.0 miSSE (150°)5.8 mphMostly Cloudy
8:41 PM41.0 °F30.2 °F65 %29.60 in10.0 miNW (320°)36.8 mphSqualls
8:42 PM41.0 °F30.2 °F65 %29.61 in10.0 miNW (320°)38.0 mph51.8 mphSqualls
8:45 PM41.0 °F30.2 °F65 %29.58 in10.0 miNW (320°)49.5 mph65.6 mphScattered Clouds
8:46 PM41.0 °F30.2 °F65 %29.62 in10.0 miNNW (330°)48.3 mph65.6 mphSqualls
8:55 PM39.2 °F29.1 °F67 %29.61 in10.0 miNW (320°)41.4 mph65.6 mph0.01 inLight Drizzle
8:56 PM39.2 °F28.4 °F65 %29.60 in10.0 miNW (320°)43.7 mph51.8 mphLight Drizzle
9:25 PM35.6 °F30.2 °F81 %29.62 in9.0 miNW (320°)44.9 mph50.6 mphSnowLight Snow
9:37 PM35.6 °F30.2 °F81 %29.65 in10.0 miNNW (330°)40.3 mph51.8 mphRainLight Rain
9:42 PM35.6 °F30.2 °F81 %29.65 in10.0 miNNW (330°)36.8 mph49.5 mphRainLight Rain
9:47 PM35.6 °F30.2 °F81 %29.66 in10.0 miNNW (330°)35.7 mph49.5 mphRainLight Rain
9:52 PM35.6 °F30.2 °F81 %29.65 in10.0 miNNW (330°)39.1 mph49.5 mphOvercast
9:55 PM35.1 °F29.5 °F80 %29.65 in10.0 miNNW (330°)35.7 mph47.2 mph0.00 inOvercast
9:59 PM35.6 °F30.2 °F81 %29.63 in10.0 miNNW (340°)40.3 mph48.3 mphRainLight Rain
10:10 PM33.8 °F30.2 °F87 %29.65 in10.0 miNNW (340°)35.7 mph47.2 mphLight Drizzle
10:14 PM33.8 °F30.2 °F87 %29.65 in10.0 miNNW (340°)35.7 mph44.9 mphRainLight Rain
10:25 PM33.8 °F28.4 °F81 %29.65 in10.0 miNNW (330°)36.8 mph46.0 mphMostly Cloudy
10:55 PM33.1 °F27.5 °F80 %29.67 in10.0 miNNW (330°)29.9 mph42.6 mph0.00 inPartly Cloudy
11:55 PM33.3 °F23.2 °F67 %29.68 in10.0 miNNW (330°)35.7 mph44.9 mphClear
Hourly data recorded from KRCA, located miles away from Box Elder, South Dakota







STORIES FROM OUR PARTNERS